Regional Weather Roundup
Issued by NWS Goodland, KS

Home | Current Version | Previous Version | Text Only | Print | Product List | Glossary On
Versions: 1 2 3 4 5 6 7 8 9 10 11 12 13 14 15 16 17 18 19 20 21 22 23 24 25 26 27 28 29 30 31 32 33 34 35 36 37 38 39 40 41 42 43 44 45 46 47 48 49 50
000
ASUS43 KGLD 281308
RWRGLD

GOODLAND FORECAST AREA HOURLY WEATHER ROUNDUP
NATIONAL WEATHER SERVICE GOODLAND KS
600 AM MST FRI NOV 28 2014

...OFFICIAL OBSERVATIONS...

CITY           SKY/WX    TMP DP  RH WIND       PRES   REMARKS
GOODLAND KS    CLEAR     41  21  44 W12       29.93F
HILL CITY KS   PTCLDY    33  23  66 CALM      29.90F
IMPERIAL NEB   PTCLDY    33  23  66 SW9       29.89F
MCCOOK NEB     PTCLDY    32  24  72 SW9       29.89F
AKRON CO       MOCLDY    38  22  52 SW7       29.93F
BURLINGTON CO  PTCLDY    35  19  52 W9        29.94F
LIMON CO       CLOUDY    27  18  69 N8        30.00F
$$

...UNOFFICIAL OBSERVATIONS...

CITY           SKY/WX    TMP DP  RH WIND       PRES   REMARKS
COLBY KS       CLEAR     34  27  75 W6        29.93F
GOVE KS          N/A     27  32 100 MISG        N/A
NORTON KS      CLEAR     34  21  60 SW13      29.89S
SHARON SPRINGS   N/A     34  22  61 W10         N/A
TRIBUNE KS     PTCLDY    32  25  74 W9        29.97F
TRENTON NEB      N/A     36  32  85 SW8         N/A
$$


USA.gov is the U.S. government's official web portal to all federal, state and local government web resources and services.